Location: La Sioule Rivi�re
(46.3664°N, 3.3197°E)
Time: 12:15:20
(UTC+00:00)

SL-4 R/B - Pass Details

Date: 29 October 2020
Orbit: 427 x 665 km, 51.6° (Epoch: 23 November)

Event Time Altitude Azimuth Distance (km) Brightness Sun altitude
Rises 17:28:13 0° 291° (WNW) 2,423 6.4 -9.5°
Reaches altitude 10° 17:30:23 10° 300° (WNW) 1,575 5.2 -9.9°
Maximum altitude 17:33:42 38° 10° (N) 728 2.5 -10.5°
Enters shadow 17:36:16 16° 73° (ENE) 1,317 3.3 -10.9°
